Weather History for Farmington, NM

Change the Weather History Date:

Monday, September 2, 2013

  Actual Average Record
Temperature  
Mean Temperature 77 °F -  
Max Temperature 90 °F 84 °F 93 °F (2002)
Min Temperature 64 °F 54 °F 46 °F (2010)
Cooling Degree Days 12    
Growing Degree Days 27 (Base 50)    
Moisture  
Dew Point 52 °F    
Average Humidity 44    
Maximum Humidity 75    
Minimum Humidity 15    
Precipitation  
Precipitation 0.00 in - - ()
Sea Level Pressure  
Sea Level Pressure 29.99 in    
Wind  
Wind Speed 7 mph (East)    
Max Wind Speed 13 mph    
Max Gust Speed -    
Visibility 10 miles    
Events      
Averages and records for this station are not official NWS values.
T = Trace of Precipitation, MM = Missing Value Source: NWS Daily Summary

Daily Weather History Graph

Daily Weather History Graph

Search for Another Location

Airport:

Trip Planner

Search our weather history database for the weather conditions in past years. The results will help you decide how hot, cold, wet, or windy it might be!

Date:

Astronomy

Sep. 02, 2013 Rise Set
Actual Time 6:45 AM MDT 7:39 PM MDT
Civil Twilight 6:18 AM MDT 8:05 PM MDT
Nautical Twilight 5:47 AM MDT 8:36 PM MDT
Astronomical Twilight 5:14 AM MDT 9:09 PM MDT
Moon 4:07 AM MDT (9/2) 5:52 PM MDT (9/2)
Length of Visible Light 13h 47m
Length of Day
12h 54m
Waning Crescent, 7% of the Moon is Illuminated
Sep 2
Waning Crescent
Sep 5
New
Sep 12
First Quarter
Sep 19
Full
Sep 26
Last Quarter

Hourly Weather History & Observations

Time (MDT) Temp. Dew Point Humidity Pressure Visibility Wind Dir Wind Speed Gust Speed Precip Events Conditions
12:53 AM 69.1 °F 59.0 °F 70% 30.03 in 10.0 mi NNE 3.5 mph - N/A   Clear
1:53 AM 68.0 °F 55.9 °F 65% 30.02 in 10.0 mi East 11.5 mph - N/A   Clear
2:53 AM 66.9 °F 55.9 °F 68% 30.03 in 10.0 mi East 9.2 mph - N/A   Mostly Cloudy
3:53 AM 66.9 °F 55.9 °F 68% 30.02 in 10.0 mi East 12.7 mph - N/A   Partly Cloudy
4:53 AM 66.0 °F 57.0 °F 73% 30.02 in 10.0 mi East 10.4 mph - N/A   Clear
5:53 AM 66.0 °F 55.9 °F 70% 30.02 in 10.0 mi ENE 8.1 mph - N/A   Clear
6:53 AM 64.0 °F 55.9 °F 75% 30.04 in 10.0 mi ENE 4.6 mph - N/A   Clear
7:53 AM 68.0 °F 55.9 °F 65% 30.07 in 10.0 mi East 6.9 mph - N/A   Clear
8:53 AM 70.0 °F 55.9 °F 61% 30.06 in 10.0 mi East 6.9 mph - N/A   Clear
9:53 AM 75.0 °F 55.0 °F 50% 30.07 in 10.0 mi ESE 10.4 mph - N/A   Clear
10:53 AM 78.1 °F 53.1 °F 42% 30.06 in 10.0 mi ESE 8.1 mph - N/A   Clear
11:53 AM 81.0 °F 52.0 °F 36% 30.05 in 10.0 mi Variable 5.8 mph - N/A   Clear
12:53 PM 84.9 °F 51.1 °F 31% 30.01 in 10.0 mi ENE 6.9 mph - N/A   Clear
1:53 PM 86.0 °F 51.1 °F 30% 29.99 in 10.0 mi Variable 4.6 mph - N/A   Clear
2:53 PM 88.0 °F 50.0 °F 27% 29.95 in 10.0 mi ENE 5.8 mph - N/A   Clear
3:53 PM 89.1 °F 46.0 °F 22% 29.92 in 10.0 mi Variable 3.5 mph - N/A   Clear
4:53 PM 88.0 °F 44.1 °F 22% 29.91 in 10.0 mi SSW 3.5 mph - N/A   Clear
5:53 PM 86.0 °F 46.0 °F 25% 29.90 in 10.0 mi WSW 8.1 mph - N/A   Clear
6:53 PM 86.0 °F 41.0 °F 20% 29.91 in 10.0 mi WSW 6.9 mph - N/A   Clear
7:53 PM 82.0 °F 43.0 °F 25% 29.92 in 10.0 mi WSW 5.8 mph - N/A   Clear
8:53 PM 79.0 °F 44.1 °F 29% 29.93 in 10.0 mi West 3.5 mph - N/A   Clear
9:53 PM 79.0 °F 48.0 °F 34% 29.94 in 10.0 mi South 3.5 mph - N/A   Clear
10:53 PM 75.9 °F 51.1 °F 42% 29.96 in 10.0 mi Variable 5.8 mph - N/A   Clear
11:53 PM 73.9 °F 50.0 °F 43% 29.96 in 10.0 mi Calm Calm - N/A   Clear